FENGYUN 1C DEB

Satellite information

Favourite Embed

Satellite Type and Status

DEBRISIN ORBIT

Key statistics

Satellite FENGYUN 1C DEB at a glance.

Uptime

9715

Days in orbit

Revolutions

≈ 13.7

Per day

Orbit

SSO

Sun Synchronous Orbit

Inclination

99.4

Latest

Satellite identification and parameters

Extended collection of information and parameters for FENGYUN 1C DEB.

Object identification

Identified? True

Debris? True

Object name: FENGYUN 1C DEB

International designator: 1999-025GS

Object number (NORAD): 29896

Object ID (CCSDS): 29896

Country: PEOPLES REPUBLIC OF CHINA (PRC)

Current information (Y/N): Y

RCS size: SMALL

Orbital parameters

Period: 105.466 minutes

Inclination: 99.4221 deg

SMA: 7394.383 km

Apoapsis: 1193.509 km

Periapsis: 838.986 km

RAAN: 239.3814 deg

Eccentricy: 0.02397245

Argument of periapsis: 99.506 deg

Mean anomaly: 326.2254 deg

Mean motion: 13.65368417 rev/day

Mean motion (dot): 0.00000723 rev/day2

B* drag term: 0.00077182278 1/REarth

Two-line elements (TLE)

Creation date: Dec. 14, 2025, 3:07 a.m.

Reference frame: TEME

Reference center: EARTH

Epoch: Dec. 13, 2025, 4:17 p.m. UTC

TLE line 0: 0 FENGYUN 1C DEB

TLE line 1: 1 29896U 99025GS 25347.67853383 .00000723 00000-0 77182-3 0 9993

TLE line 2: 2 29896 99.4221 239.3814 0239725 99.5060 326.2254 13.65368417940551

Live tracking on map

Real-time ground track for satellite FENGYUN 1C DEB.

In-orbit conjunctions

A list of the most updated potential collisions computed for object FENGYUN 1C DEB.

Target Orbit TCA Probability of collision Miss distance Type
ST5-A HEO 2025-09-30 15:07:50 0.0001247807 168.0 (m) PAYLOAD
FENGYUN 1C DEB SSO 2024-11-08 22:27:24 0.0001386003 268.0 (m) DEBRIS
SL-12 R/B(AUX MOTOR) HEO 2024-09-26 18:18:55 0.0005987527 838.0 (m) ROCKET BODY

Associated space launch

Chinese polar orbiting meteorological satellite

FENGYUN 1C DEB was lifted into orbit during the mission ‘Long March 4B | Feng Yun 1C’, on board a Long March 4B space rocket.

The launch took place on May 10, 1999, 1:33 a.m. from Launch Complex 7.

For more information about the launch, click the button.

Launch to space Long March 4B | Feng Yun 1C
Long March 4B | Feng Yun 1C

Agency: N/A

Status: Launch Successful

Launch date: May 10, 1999, 1:33 a.m. UTC

Rocket: Long March 4B

Launch pad: Launch Complex 7

Location: Taiyuan Satellite Launch Center, People's Republic of China

...

Latest news about this satellite

There are no fresh news available about this satellite. Check back as we update our databases every day.


Newsletter sign-up

Weekly statistics, charts and insights to help you stay on top of the space industry.